sat.trackr.live / text

‹ back to catalog

STARLINK-1281

NORAD 45370 · 2020-019L

PAYLOAD ACTIVE UNKNOWN

§ Identity

Operator
Country
US
Launch date
2020-03-18
Launch site
AFETR
Launch vehicle
Mass (kg)
RCS (m²)

Purposes: comms

External: N2YO · Heavens-Above · Gunter

§ Orbital elements

Epoch: 2026-09-20T04:31:11.116704Z

Period
93.28 min
Inclination
53.1523°
Eccentricity
0.0004894
Mean motion
15.43707705 rev/d
Perigee alt
431.8 km
Apogee alt
438.5 km
Semi-major
6,813.3 km
B*
9.8668e-4
RAAN
334.1049°
Arg perigee
36.4853°
Mean anomaly
323.6486°
Rev number
35,964

§ Raw data

STARLINK-12811 45370U 20019L   26263.18832311  .00045092  00000+0  98668-3 0  99962 45370  53.1523 334.1049 0004894  36.4853 323.6486 15.43707705359646

JSON: /api/v1/satellites/45370 · /tle

For live sub-satellite position, see the globe view (requires WebGL).

§ Visibility from observer

Set your observer location to see the next 7 days of passes ≥ 10°. The values pass through the URL so the page stays shareable.

No JS? Fill the form by hand. The geolocation button needs JavaScript.